Cincinnati, OH

6:18 PM EDT on September 21, 2019 (GMT -0400)
Cincinnati Municipal-Lunken

Weather History for KLUK - July, 2019

Change the Weather History Date:

Friday, July 19, 2019

  Actual Average Record
Temperature  
Mean Temperature 82 °F -  
Max Temperature 93 °F 87 °F 96 °F (1977)
Min Temperature 72 °F 68 °F 56 °F (1984)
Cooling Degree Days 16    
Growing Degree Days 32 (Base 50)    
Moisture  
Dew Point 75 °F    
Average Humidity 84    
Maximum Humidity 100    
Minimum Humidity 59    
Precipitation  
Precipitation 0.00 in - - ()
Sea Level Pressure  
Sea Level Pressure 29.97 in    
Wind  
Wind Speed 3 mph (SSW)    
Max Wind Speed 14 mph    
Max Gust Speed 21 mph    
Visibility 8 miles    
Events      
Averages and records for this station are not official NWS values.
T = Trace of Precipitation, MM = Missing Value Source: NWS Daily Summary

Daily Weather History Graph

Daily Weather History Graph

Search for Another Location

Airport or City:

Astronomy

Jul. 19, 2019 Rise Set
Actual Time 6:26 AM EDT 9:00 PM EDT
Civil Twilight 5:56 AM EDT 9:31 PM EDT
Nautical Twilight 5:17 AM EDT 10:09 PM EDT
Astronomical Twilight 4:34 AM EDT 10:52 PM EDT
Moon 10:59 PM EDT (7/19) 8:52 AM EDT (7/19)
Length of Visible Light 15h 35m
Length of Day
14h 33m
Waning Gibbous, 93% of the Moon is Illuminated
Jul 19
Waning Gibbous
Jul 24
Last Quarter
Jul 31
New
Aug 7
First Quarter
Aug 15
Full

Hourly Weather History & Observations

Time (EDT) Temp. Heat Index Dew Point Humidity Pressure Visibility Wind Dir Wind Speed Gust Speed Precip Events Conditions
12:53 AM 75.0 °F - 73.0 °F 94% 29.94 in 10.0 mi Calm Calm - N/A   Clear
1:53 AM 73.9 °F - 73.0 °F 97% 29.95 in 9.0 mi Calm Calm - N/A   Clear
2:53 AM 73.0 °F - 72.0 °F 96% 29.95 in 9.0 mi Calm Calm - N/A   Clear
3:49 AM 73.4 °F - 71.6 °F 94% 29.97 in 1.5 mi Calm Calm - N/A   Clear
3:53 AM 72.0 °F - 72.0 °F 100% 29.96 in 1.0 mi Calm Calm - N/A   Clear
4:00 AM 72.0 °F - 72.0 °F 100% 29.97 in 3.0 mi Calm Calm - N/A   Clear
4:27 AM 73.0 °F - 73.0 °F 100% 29.96 in 1.8 mi Calm Calm - N/A   Partly Cloudy
4:35 AM 73.0 °F - 73.0 °F 100% 29.97 in 2.5 mi Calm Calm - N/A   Mostly Cloudy
4:42 AM 73.0 °F - 73.0 °F 100% 29.97 in 5.0 mi Calm Calm - N/A   Mostly Cloudy
4:53 AM 73.9 °F - 73.0 °F 97% 29.96 in 7.0 mi Calm Calm - N/A   Overcast
5:53 AM 75.9 °F - 75.0 °F 97% 29.97 in 9.0 mi SSW 4.6 mph - N/A   Overcast
6:53 AM 77.0 °F - 75.0 °F 94% 29.97 in 10.0 mi SSW 4.6 mph - N/A   Overcast
7:53 AM 77.0 °F - 75.0 °F 94% 29.98 in 8.0 mi South 6.9 mph - N/A   Overcast
8:53 AM 79.0 °F - 75.9 °F 90% 29.99 in 8.0 mi SSW 8.1 mph - N/A   Overcast
9:53 AM 82.0 °F 90.2 °F 77.0 °F 85% 30.00 in 8.0 mi SSW 5.8 mph - N/A   Overcast
10:53 AM 82.9 °F 90.8 °F 75.9 °F 79% 30.00 in 8.0 mi SW 5.8 mph - N/A   Overcast
11:53 AM 84.9 °F 96.6 °F 78.1 °F 80% 29.99 in 9.0 mi SW 6.9 mph - N/A   Overcast
12:12 PM 84.9 °F 96.6 °F 78.1 °F 80% 30.01 in 9.0 mi SW 6.9 mph - N/A   Overcast
12:53 PM 87.1 °F 101.5 °F 79.0 °F 77% 29.99 in 8.0 mi SSW 10.4 mph 17.3 mph N/A   Mostly Cloudy
1:43 PM 88.0 °F 101.3 °F 78.1 °F 72% 29.99 in 8.0 mi SSW 10.4 mph - N/A   Scattered Clouds
1:53 PM 88.0 °F 101.3 °F 78.1 °F 72% 29.97 in 9.0 mi South 12.7 mph - N/A   Mostly Cloudy
2:53 PM 91.0 °F 106.2 °F 78.1 °F 66% 29.96 in 7.0 mi SW 8.1 mph 18.4 mph N/A   Mostly Cloudy
3:00 PM 90.0 °F 104.5 °F 78.1 °F 68% 29.98 in 7.0 mi SW 12.7 mph - N/A   Partly Cloudy
3:53 PM 89.1 °F 100.2 °F 75.9 °F 65% 29.95 in 8.0 mi SSW 13.8 mph 20.7 mph N/A   Mostly Cloudy
4:53 PM 91.9 °F 103.9 °F 75.9 °F 59% 29.94 in 10.0 mi SW 10.4 mph - N/A   Scattered Clouds
5:53 PM 91.0 °F 101.6 °F 75.0 °F 59% 29.93 in 10.0 mi SSW 12.7 mph - N/A   Partly Cloudy
6:53 PM 90.0 °F 100.2 °F 75.0 °F 61% 29.93 in 10.0 mi SSW 9.2 mph - N/A   Partly Cloudy
7:53 PM 88.0 °F 100.2 °F 77.0 °F 70% 29.92 in 10.0 mi SSW 8.1 mph - N/A   Clear
8:53 PM 82.9 °F 92.8 °F 78.1 °F 85% 29.92 in 10.0 mi South 5.8 mph - N/A   Partly Cloudy
9:53 PM 82.0 °F 90.2 °F 77.0 °F 85% 29.94 in 10.0 mi Calm Calm - N/A   Overcast
10:53 PM 79.0 °F - 77.0 °F 94% 29.97 in 9.0 mi Calm Calm - N/A   Clear
11:53 PM 79.0 °F - 75.9 °F 90% 29.98 in 10.0 mi Calm Calm - N/A   Clear